QPF
0.00 0.00 0.00 0.00 0.00 0.00 0.00 0.00 0.00 0.00 0.00 0.00 0.00 0.00 0.00 0.00 0.00 0.00 0.00 0.00 0.00 0.00 0.00 0.00 0.00 0.00 0.00 0.00 0.00 0.00 0.00 0.00 0.00 0.00 0.00 0.00 0.00 0.00 0.00 0.00 0.00 0.01 0.02 0.02
0.00 0.00 0.00 0.00 0.00 0.00 0.00 0.00 0.00 0.00 0.00 0.00 0.00 0.00 0.00 0.00 0.00 0.00 0.00 0.00 0.00 0.00 0.00 0.00 0.00 0.00 0.00 0.00 0.00 0.00 0.00 0.00 0.00 0.00 0.00 0.00 0.00 0.00 0.00 0.00 0.00 0.00 0.01 0.01
0.00 0.00 0.00 0.00 0.00 0.00 0.00 0.00 0.00 0.00 0.00 0.00 0.00 0.00 0.00 0.00 0.00 0.00 0.00 0.00 0.00 0.00 0.00 0.00 0.00 0.00 0.00 0.00 0.00 0.00 0.00 0.00 0.00 0.00 0.00 0.00 0.00 0.00 0.00 0.00 0.00 0.00 0.00 0.01
0.00 0.00 0.00 0.00 0.00 0.00 0.00 0.00 0.00 0.00 0.00 0.00 0.00 0.00 0.00 0.00 0.00 0.00 0.00 0.00 0.00 0.00 0.00 0.00 0.00 0.00 0.00 0.00 0.00 0.00 0.00 0.00 0.00 0.00 0.00 0.00 0.00 0.00 0.00 0.00 0.00 0.00 0.00 0.01
0.00 0.00 0.00 0.00 0.00 0.00 0.00 0.00 0.00 0.00 0.00 0.00 0.00 0.00 0.00 0.00 0.00 0.00 0.00 0.00 0.00 0.00 0.00 0.00 0.00 0.00 0.00 0.00 0.00 0.00 0.00 0.00 0.00 0.00 0.00 0.00 0.00 0.00 0.00 0.00 0.00 0.00 0.01 0.01
0.00 0.00 0.00 0.00 0.00 0.00 0.00 0.00 0.00 0.00 0.00 0.00 0.00 0.00 0.00 0.00 0.00 0.00 0.00 0.00 0.00 0.00 0.00 0.00 0.00 0.00 0.00 0.00 0.00 0.00 0.00 0.00 0.00 0.00 0.00 0.00 0.00 0.00 0.00 0.00 0.00 0.00 0.00 0.01
0.00 0.00 0.00 0.00 0.00 0.00 0.00 0.00 0.00 0.00 0.00 0.00 0.00 0.00 0.00 0.00 0.00 0.00 0.00 0.00 0.00 0.00 0.00 0.00 0.00 0.00 0.00 0.00 0.00 0.00 0.00 0.00 0.00 0.00 0.00 0.00 0.00 0.00 0.00 0.00 0.00 0.00 0.00 0.01
0.00 0.00 0.00 0.00 0.00 0.00 0.00 0.00 0.00 0.00 0.00 0.00 0.00 0.00 0.00 0.00 0.00 0.00 0.00 0.00 0.00 0.00 0.00 0.00 0.00 0.00 0.00 0.00 0.00 0.00 0.00 0.00 0.00 0.00 0.00 0.00 0.00 0.00 0.00 0.00 0.00 0.00 0.00 0.01
0.00 0.00 0.00 0.00 0.00 0.00 0.00 0.00 0.00 0.00 0.00 0.00 0.00 0.00 0.00 0.00 0.00 0.00 0.00 0.00 0.00 0.00 0.00 0.00 0.00 0.00 0.00 0.00 0.00 0.00 0.00 0.00 0.00 0.00 0.00 0.00 0.00 0.00 0.00 0.00 0.00 0.00 0.00 0.00
0.00 0.00 0.00 0.00 0.00 0.00 0.00 0.00 0.00 0.00 0.00 0.00 0.00 0.00 0.00 0.00 0.00 0.00 0.00 0.00 0.00 0.00 0.00 0.00 0.00 0.00 0.00 0.00 0.00 0.00 0.00 0.00 0.00 0.00 0.00 0.00 0.00 0.00 0.00 0.00 0.00 0.00 0.00 0.00
0.00 0.00 0.00 0.00 0.00 0.00 0.00 0.00 0.00 0.00 0.00 0.00 0.00 0.00 0.00 0.00 0.00 0.00 0.00 0.00 0.00 0.00 0.00 0.00 0.00 0.00 0.00 0.00 0.00 0.00 0.00 0.00 0.00 0.00 0.00 0.00 0.00 0.00 0.00 0.00 0.00 0.00 0.00 0.00
0.00 0.00 0.00 0.00 0.00 0.00 0.00 0.00 0.00 0.00 0.00 0.00 0.00 0.00 0.00 0.00 0.00 0.00 0.00 0.00 0.00 0.00 0.00 0.00 0.00 0.00 0.00 0.00 0.00 0.00 0.00 0.00 0.00 0.00 0.00 0.00 0.00 0.00 0.00 0.00 0.00 0.00 0.00 0.00
0.00 0.00 0.00 0.00 0.00 0.00 0.00 0.00 0.00 0.00 0.00 0.00 0.00 0.00 0.00 0.00 0.00 0.00 0.00 0.00 0.00 0.00 0.00 0.00 0.00 0.00 0.00 0.00 0.00 0.00 0.00 0.00 0.00 0.00 0.00 0.00 0.00 0.00 0.00 0.00 0.00 0.00 0.00 0.00
0.00 0.00 0.00 0.00 0.00 0.00 0.00 0.00 0.00 0.00 0.00 0.00 0.00 0.00 0.00 0.00 0.00 0.00 0.00 0.00 0.00 0.00 0.00 0.00 0.00 0.00 0.00 0.00 0.00 0.00 0.00 0.00 0.00 0.00 0.00 0.00 0.00 0.00 0.00 0.00 0.00 0.00 0.00 0.00
0.00 0.00 0.00 0.00 0.00 0.00 0.00 0.00 0.00 0.00 0.00 0.00 0.00 0.00 0.00 0.00 0.00 0.00 0.00 0.00 0.00 0.00 0.00 0.00 0.00 0.00 0.00 0.00 0.00 0.00 0.00 0.00 0.00 0.00 0.00 0.00 0.00 0.00 0.00 0.00 0.00 0.00 0.00 0.00
0.00 0.00 0.00 0.00 0.00 0.00 0.00 0.00 0.00 0.00 0.00 0.00 0.00 0.00 0.00 0.00 0.00 0.00 0.00 0.00 0.00 0.00 0.00 0.00 0.00 0.00 0.00 0.00 0.00 0.00 0.00 0.00 0.00 0.00 0.00 0.00 0.00 0.00 0.00 0.00 0.00 0.00 0.00 0.00
0.00 0.00 0.00 0.00 0.00 0.00 0.00 0.00 0.00 0.00 0.00 0.00 0.00 0.00 0.00 0.00 0.00 0.00 0.00 0.00 0.00 0.00 0.00 0.00 0.00 0.00 0.00 0.00 0.00 0.00 0.00 0.00 0.00 0.00 0.00 0.00 0.00 0.00 0.00 0.00 0.00 0.00 0.00 0.00
0.00 0.00 0.00 0.00 0.00 0.00 0.00 0.00 0.00 0.00 0.00 0.00 0.00 0.00 0.00 0.00 0.00 0.00 0.00 0.00 0.00 0.00 0.00 0.00 0.00 0.00 0.00 0.00 0.00 0.00 0.00 0.00 0.00 0.00 0.00 0.00 0.00 0.00 0.00 0.00 0.00 0.00 0.00 0.00
0.00 0.00 0.00 0.00 0.00 0.00 0.00 0.00 0.00 0.00 0.00 0.00 0.00 0.00 0.00 0.00 0.00 0.00 0.00 0.00 0.00 0.00 0.00 0.00 0.00 0.00 0.00 0.00 0.00 0.00 0.00 0.00 0.00 0.00 0.00 0.00 0.00 0.00 0.00 0.00 0.00 0.00 0.00 0.00
0.00 0.00 0.00 0.00 0.00 0.00 0.00 0.00 0.00 0.00 0.00 0.00 0.00 0.00 0.00 0.00 0.00 0.00 0.00 0.00 0.00 0.00 0.00 0.00 0.00 0.00 0.00 0.00 0.00 0.00 0.00 0.00 0.00 0.00 0.00 0.00 0.00 0.00 0.00 0.00 0.00 0.00 0.00 0.00
0.00 0.00 0.00 0.00 0.00 0.00 0.00 0.00 0.00 0.00 0.00 0.00 0.00 0.00 0.00 0.00 0.00 0.00 0.00 0.00 0.00 0.00 0.00 0.00 0.00 0.00 0.00 0.00 0.00 0.00 0.00 0.00 0.00 0.00 0.00 0.00 0.00 0.00 0.00 0.00 0.00 0.00 0.00 0.00
0.00 0.00 0.00 0.00 0.00 0.00 0.00 0.00 0.00 0.00 0.00 0.00 0.00 0.00 0.00 0.00 0.00 0.00 0.00 0.00 0.00 0.00 0.00 0.00 0.00 0.00 0.00 0.00 0.00 0.00 0.00 0.00 0.00 0.00 0.00 0.00 0.00 0.00 0.00 0.00 0.00 0.00 0.00 0.00
0.00 0.00 0.00 0.00 0.00 0.00 0.00 0.00 0.00 0.00 0.00 0.00 0.00 0.00 0.00 0.00 0.00 0.00 0.00 0.00 0.00 0.00 0.00 0.00 0.00 0.00 0.00 0.00 0.00 0.00 0.00 0.00 0.00 0.00 0.00 0.00 0.00 0.00 0.00 0.00 0.00 0.00 0.00 0.00
0.00 0.00 0.00 0.00 0.00 0.00 0.00 0.00 0.00 0.00 0.00 0.00 0.00 0.00 0.00 0.00 0.00 0.00 0.00 0.00 0.00 0.00 0.00 0.00 0.00 0.00 0.00 0.00 0.00 0.00 0.00 0.00 0.00 0.00 0.00 0.00 0.00 0.00 0.00 0.00 0.00 0.00 0.00 0.00
0.00 0.00 0.00 0.00 0.00 0.00 0.00 0.00 0.00 0.00 0.00 0.00 0.00 0.00 0.00 0.00 0.00 0.00 0.00 0.00 0.00 0.00 0.00 0.00 0.00 0.00 0.00 0.00 0.00 0.00 0.00 0.00 0.00 0.00 0.00 0.00 0.00 0.00 0.00 0.00 0.00 0.00 0.00 0.00
0.00 0.00 0.00 0.00 0.00 0.00 0.00 0.00 0.00 0.00 0.00 0.00 0.00 0.00 0.00 0.00 0.00 0.00 0.00 0.00 0.00 0.00 0.00 0.00 0.00 0.00 0.00 0.00 0.00 0.00 0.00 0.00 0.00 0.00 0.00 0.00 0.00 0.00 0.00 0.00 0.00 0.01 0.01 0.01
0.00 0.00 0.00 0.00 0.00 0.00 0.00 0.00 0.00 0.00 0.00 0.00 0.00 0.00 0.00 0.00 0.00 0.00 0.00 0.00 0.00 0.00 0.00 0.00 0.00 0.00 0.00 0.00 0.00 0.00 0.00 0.00 0.00 0.00 0.00 0.00 0.00 0.01 0.01 0.01 0.01 0.01 0.01 0.01
MSLP
1012.58 1012.79 1012.97 1013.13 1013.26 1013.37 1013.44 1013.45 1013.39 1013.25 1013.05 1012.80 1012.53 1012.26 1012.03 1011.86 1011.75 1011.71 1011.72 1011.76 1011.81 1011.85 1011.87 1011.87 1011.85 1011.84 1011.85 1011.90 1011.99 1012.13 1012.30 1012.49 1012.67 1012.83 1012.93 1012.97 1012.94 1012.84 1012.68 1012.49 1012.26 1012.04 1011.81 1011.60
1012.53 1012.68 1012.77 1012.82 1012.83 1012.82 1012.79 1012.74 1012.67 1012.56 1012.44 1012.30 1012.15 1012.01 1011.89 1011.79 1011.71 1011.67 1011.64 1011.61 1011.59 1011.56 1011.52 1011.49 1011.46 1011.46 1011.50 1011.59 1011.73 1011.91 1012.13 1012.35 1012.57 1012.75 1012.88 1012.94 1012.92 1012.84 1012.69 1012.49 1012.26 1012.01 1011.75 1011.50
1012.48 1012.57 1012.58 1012.52 1012.42 1012.31 1012.19 1012.07 1011.98 1011.90 1011.84 1011.80 1011.76 1011.73 1011.71 1011.68 1011.64 1011.60 1011.54 1011.46 1011.38 1011.28 1011.20 1011.13 1011.09 1011.09 1011.15 1011.26 1011.43 1011.64 1011.87 1012.11 1012.34 1012.53 1012.67 1012.74 1012.74 1012.67 1012.54 1012.35 1012.13 1011.87 1011.61 1011.34
1012.37 1012.40 1012.32 1012.17 1011.98 1011.77 1011.57 1011.41 1011.30 1011.24 1011.23 1011.26 1011.33 1011.40 1011.47 1011.51 1011.52 1011.50 1011.43 1011.32 1011.20 1011.06 1010.93 1010.83 1010.77 1010.77 1010.82 1010.94 1011.11 1011.31 1011.54 1011.76 1011.97 1012.15 1012.27 1012.34 1012.35 1012.29 1012.19 1012.03 1011.83 1011.61 1011.36 1011.10
1012.12 1012.08 1011.93 1011.70 1011.43 1011.15 1010.90 1010.70 1010.58 1010.55 1010.59 1010.70 1010.85 1011.02 1011.18 1011.30 1011.37 1011.38 1011.33 1011.23 1011.09 1010.93 1010.78 1010.66 1010.58 1010.56 1010.59 1010.69 1010.82 1010.99 1011.17 1011.35 1011.50 1011.63 1011.72 1011.77 1011.77 1011.73 1011.65 1011.53 1011.37 1011.20 1010.99 1010.78
1011.68 1011.56 1011.35 1011.06 1010.74 1010.43 1010.15 1009.95 1009.84 1009.84 1009.94 1010.12 1010.36 1010.62 1010.87 1011.08 1011.22 1011.29 1011.29 1011.21 1011.09 1010.94 1010.79 1010.65 1010.56 1010.51 1010.51 1010.55 1010.63 1010.73 1010.83 1010.92 1011.00 1011.06 1011.09 1011.09 1011.07 1011.02 1010.96 1010.87 1010.77 1010.65 1010.51 1010.35
1011.01 1010.82 1010.56 1010.25 1009.92 1009.60 1009.34 1009.17 1009.10 1009.16 1009.32 1009.58 1009.90 1010.26 1010.60 1010.90 1011.12 1011.27 1011.33 1011.31 1011.22 1011.10 1010.96 1010.83 1010.72 1010.64 1010.60 1010.58 1010.58 1010.59 1010.59 1010.57 1010.55 1010.50 1010.45 1010.38 1010.31 1010.24 1010.18 1010.12 1010.06 1009.99 1009.91 1009.82
1010.12 1009.89 1009.61 1009.30 1009.00 1008.73 1008.53 1008.43 1008.43 1008.56 1008.80 1009.14 1009.55 1009.99 1010.41 1010.79 1011.11 1011.33 1011.47 1011.51 1011.49 1011.41 1011.30 1011.18 1011.07 1010.96 1010.87 1010.78 1010.69 1010.60 1010.48 1010.35 1010.20 1010.04 1009.88 1009.72 1009.58 1009.47 1009.38 1009.32 1009.28 1009.25 1009.22 1009.18
1009.08 1008.83 1008.56 1008.31 1008.08 1007.90 1007.80 1007.80 1007.90 1008.12 1008.45 1008.87 1009.35 1009.85 1010.35 1010.80 1011.19 1011.49 1011.69 1011.81 1011.85 1011.83 1011.76 1011.66 1011.55 1011.43 1011.29 1011.14 1010.96 1010.77 1010.54 1010.28 1010.01 1009.73 1009.44 1009.18 1008.96 1008.77 1008.63 1008.53 1008.48 1008.46 1008.45 1008.45
1007.95 1007.72 1007.51 1007.34 1007.23 1007.18 1007.21 1007.34 1007.56 1007.88 1008.29 1008.78 1009.32 1009.87 1010.41 1010.91 1011.35 1011.71 1011.98 1012.16 1012.26 1012.29 1012.27 1012.20 1012.10 1011.96 1011.80 1011.59 1011.35 1011.06 1010.74 1010.37 1009.98 1009.58 1009.18 1008.81 1008.48 1008.20 1007.98 1007.83 1007.73 1007.68 1007.66 1007.68
1006.82 1006.64 1006.53 1006.49 1006.52 1006.62 1006.80 1007.07 1007.41 1007.83 1008.32 1008.86 1009.43 1010.00 1010.57 1011.09 1011.56 1011.95 1012.26 1012.49 1012.65 1012.73 1012.75 1012.72 1012.64 1012.51 1012.32 1012.09 1011.79 1011.44 1011.04 1010.59 1010.11 1009.61 1009.11 1008.63 1008.19 1007.81 1007.50 1007.26 1007.09 1006.98 1006.93 1006.93
1005.72 1005.64 1005.65 1005.76 1005.95 1006.22 1006.56 1006.96 1007.42 1007.92 1008.47 1009.03 1009.62 1010.19 1010.75 1011.27 1011.74 1012.15 1012.49 1012.76 1012.96 1013.09 1013.15 1013.16 1013.10 1012.98 1012.80 1012.55 1012.24 1011.85 1011.41 1010.90 1010.36 1009.78 1009.21 1008.64 1008.12 1007.65 1007.24 1006.90 1006.65 1006.47 1006.35 1006.30
1004.68 1004.71 1004.87 1005.13 1005.49 1005.92 1006.41 1006.94 1007.49 1008.06 1008.65 1009.23 1009.80 1010.36 1010.90 1011.40 1011.86 1012.28 1012.63 1012.93 1013.16 1013.33 1013.44 1013.48 1013.45 1013.36 1013.19 1012.95 1012.63 1012.24 1011.78 1011.26 1010.69 1010.08 1009.46 1008.85 1008.26 1007.71 1007.22 1006.81 1006.46 1006.20 1006.01 1005.88
1003.69 1003.85 1004.15 1004.57 1005.08 1005.66 1006.28 1006.91 1007.54 1008.17 1008.77 1009.36 1009.92 1010.46 1010.97 1011.45 1011.90 1012.31 1012.68 1013.00 1013.26 1013.47 1013.61 1013.69 1013.69 1013.62 1013.48 1013.26 1012.95 1012.58 1012.13 1011.62 1011.06 1010.46 1009.83 1009.20 1008.59 1008.01 1007.47 1006.99 1006.58 1006.23 1005.97 1005.77
1002.77 1003.05 1003.48 1004.04 1004.68 1005.38 1006.10 1006.82 1007.51 1008.17 1008.80 1009.38 1009.93 1010.45 1010.94 1011.41 1011.86 1012.27 1012.65 1012.99 1013.29 1013.52 1013.69 1013.80 1013.83 1013.79 1013.66 1013.46 1013.19 1012.84 1012.43 1011.95 1011.43 1010.87 1010.28 1009.68 1009.08 1008.49 1007.94 1007.43 1006.97 1006.57 1006.24 1005.97
1001.93 1002.32 1002.86 1003.53 1004.27 1005.06 1005.86 1006.64 1007.38 1008.07 1008.71 1009.30 1009.85 1010.36 1010.85 1011.32 1011.77 1012.20 1012.60 1012.96 1013.27 1013.53 1013.72 1013.85 1013.89 1013.87 1013.76 1013.58 1013.33 1013.02 1012.65 1012.23 1011.77 1011.27 1010.75 1010.20 1009.65 1009.11 1008.57 1008.07 1007.59 1007.16 1006.78 1006.45
1001.24 1001.71 1002.33 1003.07 1003.89 1004.74 1005.59 1006.42 1007.19 1007.90 1008.56 1009.16 1009.72 1010.24 1010.74 1011.22 1011.69 1012.13 1012.55 1012.93 1013.26 1013.53 1013.73 1013.86 1013.91 1013.89 1013.79 1013.62 1013.39 1013.11 1012.79 1012.43 1012.03 1011.61 1011.17 1010.70 1010.23 1009.75 1009.26 1008.79 1008.33 1007.89 1007.48 1007.11
1000.77 1001.29 1001.96 1002.74 1003.59 1004.48 1005.36 1006.21 1007.00 1007.73 1008.41 1009.02 1009.60 1010.14 1010.66 1011.16 1011.64 1012.10 1012.53 1012.92 1013.26 1013.53 1013.73 1013.85 1013.89 1013.86 1013.75 1013.59 1013.37 1013.12 1012.83 1012.52 1012.19 1011.84 1011.48 1011.10 1010.71 1010.31 1009.89 1009.47 1009.04 1008.62 1008.20 1007.80
1000.62 1001.15 1001.83 1002.62 1003.47 1004.36 1005.24 1006.09 1006.89 1007.64 1008.32 1008.96 1009.55 1010.11 1010.64 1011.15 1011.65 1012.12 1012.55 1012.94 1013.26 1013.52 1013.71 1013.81 1013.83 1013.78 1013.66 1013.49 1013.27 1013.03 1012.77 1012.50 1012.22 1011.93 1011.64 1011.34 1011.02 1010.69 1010.34 1009.97 1009.59 1009.19 1008.78 1008.37
1000.82 1001.33 1001.99 1002.75 1003.58 1004.44 1005.30 1006.13 1006.92 1007.66 1008.35 1008.99 1009.59 1010.15 1010.69 1011.20 1011.69 1012.15 1012.57 1012.94 1013.24 1013.48 1013.64 1013.72 1013.72 1013.65 1013.51 1013.33 1013.11 1012.87 1012.62 1012.37 1012.12 1011.87 1011.62 1011.37 1011.11 1010.83 1010.53 1010.21 1009.87 1009.50 1009.12 1008.71
1001.37 1001.83 1002.43 1003.13 1003.91 1004.72 1005.53 1006.33 1007.10 1007.82 1008.49 1009.12 1009.70 1010.25 1010.77 1011.26 1011.72 1012.15 1012.54 1012.88 1013.16 1013.37 1013.50 1013.56 1013.54 1013.46 1013.31 1013.12 1012.90 1012.66 1012.41 1012.16 1011.92 1011.68 1011.45 1011.22 1010.99 1010.74 1010.47 1010.18 1009.86 1009.52 1009.15 1008.77
1002.17 1002.56 1003.08 1003.71 1004.41 1005.15 1005.90 1006.65 1007.37 1008.05 1008.69 1009.29 1009.84 1010.36 1010.84 1011.29 1011.70 1012.09 1012.43 1012.73 1012.97 1013.16 1013.27 1013.32 1013.30 1013.21 1013.07 1012.88 1012.66 1012.42 1012.17 1011.91 1011.66 1011.42 1011.18 1010.95 1010.71 1010.46 1010.20 1009.91 1009.61 1009.28 1008.93 1008.56
1003.10 1003.40 1003.83 1004.37 1004.98 1005.64 1006.32 1007.01 1007.67 1008.31 1008.90 1009.45 1009.96 1010.42 1010.85 1011.24 1011.60 1011.92 1012.22 1012.47 1012.68 1012.85 1012.95 1013.00 1012.99 1012.93 1012.81 1012.64 1012.43 1012.19 1011.94 1011.67 1011.41 1011.14 1010.87 1010.61 1010.35 1010.08 1009.80 1009.51 1009.20 1008.87 1008.53 1008.17
1003.99 1004.20 1004.54 1004.98 1005.51 1006.09 1006.70 1007.32 1007.93 1008.52 1009.06 1009.56 1010.01 1010.41 1010.77 1011.10 1011.39 1011.66 1011.90 1012.12 1012.31 1012.46 1012.57 1012.64 1012.66 1012.63 1012.54 1012.41 1012.22 1012.00 1011.75 1011.48 1011.19 1010.89 1010.59 1010.29 1009.99 1009.69 1009.38 1009.07 1008.75 1008.41 1008.07 1007.71
1004.70 1004.84 1005.09 1005.45 1005.89 1006.41 1006.96 1007.53 1008.09 1008.63 1009.13 1009.58 1009.97 1010.32 1010.62 1010.88 1011.12 1011.33 1011.53 1011.71 1011.88 1012.04 1012.17 1012.26 1012.32 1012.34 1012.30 1012.21 1012.06 1011.86 1011.62 1011.34 1011.04 1010.71 1010.38 1010.04 1009.71 1009.37 1009.04 1008.70 1008.35 1008.00 1007.64 1007.26
1005.13 1005.21 1005.40 1005.69 1006.08 1006.54 1007.05 1007.58 1008.12 1008.62 1009.09 1009.51 1009.87 1010.17 1010.42 1010.64 1010.82 1010.99 1011.15 1011.31 1011.47 1011.63 1011.78 1011.91 1012.01 1012.07 1012.08 1012.04 1011.93 1011.76 1011.53 1011.26 1010.95 1010.61 1010.25 1009.89 1009.53 1009.17 1008.81 1008.44 1008.08 1007.70 1007.30 1006.88
1005.27 1005.30 1005.45 1005.70 1006.06 1006.49 1006.98 1007.50 1008.02 1008.52 1008.98 1009.38 1009.72 1009.99 1010.22 1010.40 1010.55 1010.69 1010.82 1010.96 1011.12 1011.28 1011.45 1011.60 1011.74 1011.84 1011.89 1011.88 1011.80 1011.66 1011.45 1011.19 1010.89 1010.55 1010.19 1009.82 1009.44 1009.07 1008.69 1008.31 1007.91 1007.50 1007.05 1006.56
Thickness
5753 5754 5752 5749 5746 5744 5738 5739 5737 5743 5745 5752 5757 5756 5756 5757 5755 5751 5748 5746 5742 5737 5734 5731 5727 5724 5721 5716 5712 5707 5701 5695 5690 5685 5681 5676 5671 5667 5664 5659 5656 5652 5649 5646
5747 5752 5750 5746 5750 5749 5746 5746 5746 5746 5747 5762 5763 5760 5757 5756 5753 5748 5746 5745 5743 5740 5736 5732 5729 5726 5722 5717 5713 5708 5702 5696 5692 5687 5682 5677 5672 5668 5664 5660 5656 5653 5649 5646
5737 5750 5744 5736 5754 5754 5752 5755 5751 5743 5751 5760 5757 5754 5753 5753 5751 5748 5746 5744 5741 5739 5736 5733 5731 5727 5722 5718 5714 5708 5703 5698 5693 5688 5682 5677 5674 5669 5664 5661 5657 5653 5650 5646
5737 5739 5718 5754 5783 5776 5762 5761 5764 5761 5760 5760 5757 5756 5756 5755 5750 5747 5745 5742 5740 5738 5736 5734 5733 5729 5725 5720 5714 5709 5703 5698 5694 5689 5683 5679 5674 5669 5666 5662 5658 5654 5650 5647
5735 5731 5741 5758 5773 5771 5759 5756 5768 5763 5761 5760 5761 5756 5752 5754 5751 5747 5744 5741 5739 5737 5736 5734 5731 5727 5723 5718 5714 5708 5703 5698 5695 5690 5684 5679 5674 5670 5667 5663 5659 5656 5652 5649
5734 5724 5726 5760 5778 5781 5765 5748 5771 5768 5761 5759 5756 5741 5738 5749 5748 5745 5742 5739 5737 5735 5733 5729 5727 5724 5718 5713 5709 5705 5702 5699 5696 5691 5685 5680 5676 5672 5669 5665 5661 5658 5655 5652
5724 5725 5745 5766 5776 5770 5737 5748 5773 5770 5763 5758 5751 5743 5744 5746 5743 5740 5737 5735 5733 5730 5725 5722 5721 5718 5712 5708 5704 5702 5700 5697 5694 5690 5686 5682 5678 5674 5670 5667 5663 5660 5657 5655
5728 5720 5734 5765 5765 5756 5757 5770 5771 5766 5763 5756 5751 5747 5744 5740 5736 5734 5731 5729 5727 5723 5719 5717 5715 5711 5705 5701 5700 5699 5697 5693 5691 5689 5686 5684 5679 5675 5671 5667 5663 5660 5657 5656
5748 5745 5760 5769 5766 5767 5771 5767 5764 5760 5757 5753 5746 5741 5738 5734 5730 5727 5725 5721 5719 5716 5712 5710 5708 5704 5697 5695 5695 5694 5692 5690 5688 5687 5686 5684 5680 5676 5672 5668 5663 5660 5657 5654
5755 5754 5758 5762 5762 5761 5763 5762 5759 5756 5752 5748 5741 5737 5732 5728 5724 5720 5718 5714 5711 5707 5703 5700 5699 5696 5691 5690 5689 5688 5686 5686 5686 5684 5683 5682 5680 5676 5672 5668 5664 5660 5657 5654
5750 5756 5755 5754 5757 5757 5755 5754 5751 5748 5745 5742 5736 5731 5726 5720 5716 5712 5709 5706 5702 5697 5693 5691 5689 5686 5683 5681 5681 5680 5680 5680 5680 5679 5678 5677 5676 5674 5671 5669 5665 5661 5658 5655
5745 5759 5755 5755 5758 5756 5749 5745 5743 5739 5734 5732 5729 5723 5718 5712 5708 5704 5700 5697 5693 5688 5684 5681 5678 5675 5672 5671 5671 5671 5671 5670 5670 5670 5670 5670 5670 5670 5671 5668 5667 5663 5660 5656
5765 5768 5765 5765 5759 5752 5745 5741 5738 5733 5727 5722 5720 5716 5710 5703 5698 5694 5691 5687 5682 5678 5674 5670 5667 5663 5662 5661 5661 5661 5661 5660 5660 5660 5661 5661 5662 5661 5661 5663 5663 5660 5657 5654
5766 5759 5748 5746 5744 5743 5740 5735 5730 5725 5720 5715 5710 5706 5700 5694 5689 5684 5680 5676 5673 5668 5663 5659 5655 5652 5651 5651 5652 5652 5651 5650 5650 5650 5651 5652 5653 5653 5653 5653 5653 5653 5654 5651
5754 5753 5746 5743 5738 5733 5730 5725 5718 5712 5708 5704 5700 5695 5690 5684 5678 5673 5670 5667 5662 5658 5653 5649 5645 5642 5642 5641 5642 5642 5641 5640 5640 5641 5642 5643 5644 5644 5644 5644 5644 5644 5645 5644
5743 5741 5738 5732 5727 5723 5718 5714 5708 5703 5699 5694 5688 5684 5679 5673 5667 5663 5659 5655 5650 5645 5641 5637 5634 5632 5632 5631 5631 5631 5631 5631 5631 5632 5632 5632 5632 5633 5633 5632 5632 5632 5631 5631
5731 5726 5724 5720 5717 5714 5710 5707 5702 5696 5690 5684 5678 5673 5668 5662 5656 5651 5647 5643 5639 5634 5630 5626 5623 5622 5622 5620 5620 5620 5620 5621 5622 5621 5620 5619 5619 5620 5620 5619 5618 5618 5618 5618
5734 5730 5725 5719 5712 5705 5701 5697 5693 5687 5680 5674 5668 5662 5657 5651 5646 5640 5636 5633 5628 5623 5619 5615 5612 5611 5611 5609 5608 5608 5609 5609 5609 5609 5608 5607 5606 5607 5606 5605 5604 5604 5604 5604
5723 5719 5715 5710 5704 5697 5690 5685 5679 5674 5667 5661 5655 5650 5645 5640 5635 5630 5625 5620 5615 5610 5607 5604 5602 5601 5600 5598 5596 5596 5597 5597 5597 5596 5595 5594 5594 5593 5592 5590 5589 5589 5588 5588
5704 5701 5698 5693 5689 5682 5676 5670 5664 5657 5652 5647 5641 5636 5630 5626 5621 5617 5613 5607 5602 5598 5595 5592 5590 5589 5588 5586 5584 5584 5585 5585 5584 5583 5582 5581 5579 5578 5577 5575 5574 5573 5571 5570
5681 5679 5676 5671 5667 5662 5657 5652 5646 5640 5636 5631 5626 5621 5617 5612 5609 5604 5600 5595 5591 5586 5584 5582 5580 5577 5576 5573 5573 5573 5573 5573 5572 5570 5569 5567 5565 5563 5561 5560 5558 5556 5554 5552
5657 5655 5652 5648 5644 5639 5636 5632 5628 5623 5619 5615 5612 5608 5603 5599 5595 5592 5588 5584 5580 5575 5573 5571 5569 5566 5564 5562 5562 5562 5562 5562 5560 5558 5555 5552 5550 5547 5545 5543 5540 5538 5536 5533
5635 5633 5630 5626 5623 5620 5617 5614 5610 5606 5603 5600 5596 5593 5589 5586 5583 5580 5576 5573 5570 5565 5562 5560 5558 5556 5554 5552 5552 5552 5552 5550 5548 5545 5541 5538 5535 5532 5529 5526 5523 5520 5517 5515
5615 5613 5611 5608 5606 5602 5599 5596 5593 5590 5587 5584 5582 5579 5576 5572 5570 5568 5565 5562 5558 5554 5552 5550 5548 5547 5545 5543 5543 5542 5540 5538 5535 5531 5528 5524 5520 5517 5513 5510 5506 5503 5500 5497
5597 5595 5593 5592 5589 5587 5585 5582 5578 5575 5572 5569 5567 5565 5563 5561 5558 5556 5554 5551 5548 5544 5543 5542 5540 5538 5536 5535 5533 5531 5528 5525 5522 5518 5515 5511 5506 5502 5498 5494 5489 5485 5481 5478
5580 5579 5577 5576 5575 5572 5571 5568 5565 5562 5559 5556 5555 5554 5552 5550 5548 5545 5542 5540 5539 5536 5534 5532 5531 5529 5527 5525 5522 5519 5516 5513 5509 5505 5501 5496 5492 5487 5482 5477 5472 5467 5463 5459
5564 5563 5561 5560 5560 5559 5557 5555 5553 5550 5549 5546 5545 5543 5542 5540 5537 5535 5533 5530 5529 5527 5525 5523 5521 5519 5517 5514 5511 5508 5504 5500 5496 5491 5486 5481 5476 5471 5466 5461 5456 5451 5446 5442